Location: LDNL
(36.4545°S, 141.6685°E)
Time: 19:06:44
(UTC+10:00)

A-11 Canister half - Pass Details

Date: 04 February 2022
Orbit: 1527 x 1682 km, 47.3° (Epoch: 20 May)

Event Time Altitude Azimuth Distance (km) Brightness Sun altitude
Rises 22:27:41 0° 294° (WNW) 4,921 12.0 -19.4°
Reaches altitude 10° 22:30:52 10° 291° (WNW) 3,944 11.5 -19.9°
Maximum altitude 22:41:02 70° 208° (SSW) 1,775 9.4 -21.5°
Drops below altitude 10° 22:51:10 10° 124° (ESE) 3,926 11.0 -23.0°
Sets 22:54:21 0° 121° (ESE) 4,899 11.5 -23.4°
